SCP
0 0 0 0 0 0 0 0 0 0 0 0 0 0 0 0 0 0 0 0 0 0 0 0 0 0 0 0 0 0 0 0 0 0 0 0 0 0
0 0 0 0 0 0 0 0 0 0 0 0 0 0 0 0 0 0 0 0 0 0 0 0 0 0 0 0 0 0 0 0 0 0 0 0 0 0
0 0 0 0 0 0 0 0 0 0 0 0 0 0 0 0 0 0 0 0 0 0 0 0 0 0 0 0 0 0 0 0 0 0 0 0 0 0
0 0 0 0 0 0 0 0 0 0 0 0 0 0 0 0 0 0 0 0 0 0 0 0 0 0 0 0 0 0 0 0 0 0 0 0 0 0
0 0 0 0 0 0 0 0 0 0 0 0 0 0 0 0 0 0 0 0 0 0 0 0 0 0 0 0 0 0 0 0 0 0 0 0 0 0
0 0 0 0 0 0 0 0 0 0 0 0 0 0 0 0 0 0 0 0 0 0 0 0 0 0 0 0 0 0 0 0 0 0 0 0 0 0
0 0 0 0 0 0 0 0 0 0 0 0 0 0 0 0 0 0 0 0 0 0 0 0 0 0 0 0 0 0 0 0 0 0 0 0 0 0
0 0 0 0 0 0 0 0 0 0 0 0 0 0 0 0 0 0 0 0 0 0 0 0 0 0 0 0 0 0 0 0 0 0 0 0 0 0
0 0 0 0 0 0 0 0 0 0 0 0 0 0 0 0 0 0 0 0 0 0 0 0 0 0 0 0 0 0 0 0 0 0 0 0 0 0
0 0 0 0 0 0 0 0 0 0 0 0 0 0 0 0 0 0 0 0 0 0 0 0 0 0 0 0 0 0 0 0 0 0 0 0 0 0
0 0 0 0 0 0 0 0 0 0 0 0 0 0 0 0 0 0 0 0 0 0 0 0 0 0 0 0 0 0 0 0 0 0 0 0 0 0
0 0 0 0 0 0 0 0 0 0 0 0 0 0 0 0 0 0 0 0 0 0 0 0 0 0 0 0 0 0 0 0 0 0 0 0 0 0
0 0 0 0 0 0 0 0 0 0 0 0 0 0 0 0 0 0 0 0 0 0 0 0 0 0 0 0 0 0 0 0 0 0 0 0 0 0
0 0 0 0 0 0 0 0 0 0 0 0 0 0 0 0 0 0 0 0 0 0 0 0 0 0 0 0 0 0 0 0 0 0 0 0 0 0
0 0 0 0 0 0 0 0 0 0 0 0 0 0 0 0 0 0 0 0 0 0 0 0 0 0 0 0 0 0 0 0 0 0 0 0 0 0
0 0 0 0 0 0 0 0 0 0 0 0 0 0 0 0 0 0 0 0 0 0 0 0 0 0 0 0 0 0 0 0 0 0 0 0 0 0
0 0 0 0 0 0 0 0 0 0 0 0 0 0 0 0 0 0 0 0 0 0 0 0 0 0 0 0 0 0 0 0 0 0 0 0 0 0
0 0 0 0 0 0 0 0 0 0 0 0 0 0 0 0 0 0 0 0 0 0 0 0 0 0 0 0 0 0 0 0 0 0 0 0 0 0
0 0 0 0 0 0 0 0 0 0 0 0 0 0 0 0 0 0 0 0 0 0 0 0 0 0 0 0 0 0 0 0 0 0 0 0 0 0
0 0 0 0 0 0 0 0 0 0 0 0 0 0 0 0 0 0 0 0 0 0 0 0 0 0 0 0 0 0 0 0 0 0 0 0 0 0
0 0 0 0 0 0 0 0 0 0 0 0 0 0 0 0 0 0 0 0 0 0 0 0 0 0 0 0 0 0 0 0 0 0 0 0 0 0
0 0 0 0 0 0 0 0 0 0 0 0 0 0 0 0 0 0 0 0 0 0 0 0 0 0 0 0 0 0 0 0 0 0 0 0 0 0
0 0 0 0 0 0 0 0 0 0 0 0 0 0 0 0 0 0 0 0 0 0 0 0 0 0 0 0 0 0 0 0 0 0 0 0 0 0
Wind_Speed
6 6 5 4 4 4 4 4 5 4 5 4 3 5 4 4 8 6 5 8 7 5 3 2 2 3 4 5 6 7 7 7 8 8 9 8 8 6
5 6 6 4 5 4 4 4 4 4 4 4 4 3 5 6 10 6 6 11 10 7 5 4 2 2 2 3 4 5 5 6 6 7 8 8 9 9
4 6 7 6 5 5 4 4 3 3 3 2 2 2 5 6 6 5 4 5 5 9 8 6 5 3 2 0 1 2 3 4 5 5 6 7 7 8
4 4 5 5 6 5 5 4 3 3 3 2 2 2 4 5 6 6 5 6 4 9 10 9 7 6 4 3 1 1 1 2 3 3 4 5 6 7
3 4 4 5 6 5 6 5 3 3 3 3 2 2 1 3 3 3 4 3 5 7 10 10 9 8 7 5 4 3 1 0 1 2 3 4 5 6
3 3 3 4 5 5 5 5 5 4 3 3 2 2 2 2 3 3 3 3 4 5 6 6 9 9 9 8 7 6 4 3 2 2 2 3 3 4
3 3 3 5 6 5 4 5 5 4 3 3 3 2 3 3 4 4 5 3 3 3 3 4 4 4 5 8 10 9 7 6 5 4 3 3 2 2
4 4 4 5 8 9 9 9 8 6 5 4 3 4 5 4 4 4 4 3 4 4 5 4 4 5 5 4 8 10 10 9 8 6 5 4 3 3
5 4 4 5 8 5 7 10 9 11 10 6 5 6 5 6 5 5 6 6 6 4 5 4 4 5 5 7 14 14 13 12 11 9 8 7 5 4
5 5 6 5 5 7 6 5 6 7 8 7 7 7 7 6 7 7 7 6 2 3 6 5 4 5 4 6 13 16 14 13 12 11 10 8 7 6
4 4 5 5 8 9 6 6 5 5 7 10 10 10 11 10 8 4 4 4 4 4 5 4 3 3 2 4 8 15 16 15 13 13 12 10 9 7
2 2 5 6 6 7 6 5 6 5 3 3 5 6 6 6 9 7 6 5 3 4 5 6 4 3 2 3 3 5 8 12 14 13 13 12 11 5
2 1 1 4 5 5 5 4 6 4 2 3 2 2 2 2 3 4 5 5 5 4 4 5 4 4 3 2 1 2 4 4 6 7 11 13 13 9
2 1 1 2 2 3 3 4 4 2 1 1 1 1 2 2 2 3 4 4 4 4 5 6 4 5 4 3 3 2 3 3 4 5 5 8 11 12
1 2 2 3 2 1 1 1 2 2 1 1 1 1 1 1 0 1 1 1 1 0 2 4 4 4 4 4 3 3 3 4 6 6 6 6 6 5
1 2 3 3 1 1 1 1 1 1 2 1 1 1 0 1 1 1 1 1 1 0 1 1 2 4 3 3 4 3 4 3 4 6 6 5 5 6
2 2 1 1 0 0 0 0 0 1 1 1 1 1 0 0 0 0 1 1 1 1 1 0 1 1 2 3 3 4 4 4 3 4 5 5 7 8
3 2 1 1 0 0 0 0 0 1 1 1 1 1 0 1 1 0 0 1 1 2 1 1 2 1 0 2 5 4 4 4 4 5 5 5 6 6
4 3 2 2 1 1 1 1 1 0 1 1 1 0 0 1 1 1 1 1 2 2 2 2 2 3 3 3 4 7 5 3 3 4 6 7 6 5
4 3 3 3 2 2 2 2 2 2 1 1 1 1 0 0 1 1 2 2 2 2 2 2 3 4 4 3 3 3 8 6 4 4 4 4 5 4
4 4 4 3 3 3 3 2 2 2 2 2 2 2 1 1 1 1 2 3 2 2 3 3 4 5 3 1 2 3 3 7 6 4 3 3 3 3
4 4 4 4 4 3 3 3 3 3 3 2 2 2 2 1 1 2 2 2 2 3 3 3 1 1 2 4 5 4 3 2 3 5 4 3 3 3
3 3 3 4 4 3 3 3 4 3 3 3 3 3 2 2 2 2 2 3 3 3 3 2 1 2 2 3 4 4 4 3 2 2 1 0 1 1
Wind_Direction
200 193 189 186 178 172 165 167 171 191 220 221 202 195 181 178 183 177 176 187 184 183 177 147 90 66 55 53 49 43 39 35 35 37 38 40 40 42
196 195 197 192 183 175 176 179 177 175 208 220 210 190 178 186 189 181 187 190 191 191 192 185 164 120 76 56 44 39 34 31 33 37 38 40 44 46
200 201 205 191 182 179 173 172 179 168 194 228 212 188 171 175 174 179 187 192 195 199 199 199 195 194 195 171 32 29 28 29 31 35 38 42 47 47
199 200 204 192 183 175 170 173 178 174 178 200 210 185 184 182 171 179 190 195 196 206 205 205 206 209 215 224 239 321 12 24 28 35 38 45 52 50
192 194 193 183 178 172 168 171 176 180 172 183 207 201 172 151 146 182 190 194 202 211 210 211 212 215 220 224 227 233 243 217 84 59 59 64 57 52
186 185 178 176 173 169 170 171 169 171 174 180 194 205 194 154 149 169 188 203 206 201 206 204 213 220 223 224 226 225 223 213 192 154 116 102 80 66
195 194 193 194 193 187 179 173 169 174 178 191 197 189 188 170 192 185 195 185 212 197 191 205 204 216 222 227 227 225 218 213 206 192 170 150 134 114
204 209 215 218 218 216 210 197 186 185 192 196 199 204 207 204 189 182 174 166 226 208 181 218 193 217 218 216 224 223 219 214 209 204 198 191 182 169
205 207 222 224 221 221 229 227 220 216 207 197 206 215 210 206 189 190 191 196 211 184 168 216 199 225 217 220 220 221 220 217 211 207 205 201 196 192
209 209 218 233 221 210 213 222 229 231 227 223 222 227 224 212 200 202 203 210 212 177 168 201 202 218 216 211 221 217 215 213 211 208 206 203 201 201
220 217 214 225 235 219 205 220 236 245 244 236 232 237 236 229 207 187 180 180 219 218 188 197 201 201 217 223 222 217 210 207 207 209 207 203 203 203
227 242 223 219 230 210 195 204 227 242 240 249 243 248 244 237 216 200 192 190 198 224 195 187 179 155 241 252 216 209 207 208 206 208 208 204 200 188
184 226 248 217 213 206 194 202 226 229 219 229 242 252 248 234 221 210 202 201 205 221 191 172 174 174 201 228 268 214 190 189 198 212 213 210 203 186
169 186 212 177 171 187 197 218 230 211 180 198 216 243 246 247 238 218 211 212 212 214 188 175 179 179 179 192 235 233 203 194 190 202 205 214 215 207
164 176 171 151 121 119 224 196 147 138 147 163 208 239 251 255 213 145 133 150 137 154 172 185 180 173 181 195 196 183 197 214 205 208 208 210 209 201
82 100 109 102 82 358 8 50 115 158 159 173 195 218 26 59 73 95 131 142 166 238 48 138 180 178 188 191 181 191 192 205 204 210 212 217 216 212
112 91 83 72 16 349 335 294 149 119 121 137 137 134 115 85 83 106 132 153 183 201 213 131 86 115 183 177 195 206 199 208 203 190 199 225 228 222
109 95 85 77 76 237 189 71 84 114 137 137 132 151 190 231 246 220 202 213 238 237 221 192 159 133 275 253 215 215 212 216 201 191 193 216 241 225
79 75 70 63 55 57 66 76 59 41 96 102 105 183 247 251 249 247 239 245 256 258 243 199 184 189 218 250 245 212 210 209 196 197 205 214 234 227
59 63 56 52 48 48 50 48 45 40 47 50 37 2 314 270 266 270 259 253 260 263 260 224 211 212 222 232 241 235 211 210 206 218 219 221 242 245
49 48 44 40 39 40 41 42 43 39 37 37 28 9 346 323 295 288 281 279 267 260 263 255 243 231 222 207 249 260 237 218 221 221 215 214 224 224
50 49 42 38 34 35 36 40 43 39 33 32 18 5 354 345 311 299 291 281 267 262 266 266 261 187 186 219 247 257 251 228 232 240 243 229 217 230
50 51 46 36 32 31 31 38 43 35 26 15 2 349 341 331 313 298 292 286 282 281 278 274 253 217 223 234 252 264 266 255 226 230 234 302 312 0